Location: Nelson
(41.2830°S, 173.2830°E)
Time: 15:13:36
(UTC+13:00)

Cosmos 1933 - Pass Details

Date: 24 January 2019
Orbit: 547 x 564 km, 82.5° (Epoch: 16 February)

Event Time Altitude Azimuth Distance (km) Brightness Sun altitude
Exits shadow 22:58:08 25° 341° (NNW) 1,150 4.6 -19.0°
Maximum altitude 23:00:25 71° 262° (W) 608 3.6 -19.2°
Drops below altitude 10° 23:04:35 10° 177° (S) 1,893 6.7 -19.7°
Sets 23:06:48 0° 174° (S) 2,800 7.6 -20.0°
